User: anonymous
Location: Bangkok
(13.7500°N, 100.5170°E)
Time: 19:17:56
(UTC+07:00)
Language:

Cosmos 1898 Rocket - Orbit

View from above orbital plane
View from above orbital plane
View from above satellite
View from above satellite

Ground track
Ground track

The orbit data is extracted from the following two-line orbital elements,

1 18586U 87098B   14109.98634706  .00000539  00000-0  19270-3 0    55
2 18586 074.0073 260.1775 0021695 231.6957 267.1297 14.36400201381619
Epoch (UTC): 19 April 2014 23:40:20
Eccentricity: 0.0021695
inclination: 74.0073°
perigee height: 755 km
apogee height: 786 km
right ascension of ascending node: 260.1775°
argument of perigee: 231.6957°
revolutions per day: 14.36400201
mean anomaly at epoch: 267.1297°
orbit number at epoch: 38161

The dashed part of the orbit path shows where the satellite is in the earth's shadow,  

DLR